User: anonymous   Login
Location: Demmingen
(48.6757°N, 10.4375°E)
Time: 02:43:01
(UTC+00:00)
Language:

Resurs 1-4 Rocket - Orbit

View from above orbital plane
View from above orbital plane
View from above satellite
View from above satellite

Ground track
Ground track

The orbit data is extracted from the following two-line orbital elements,

1 25400U 98043G   24200.56011292  .00000239  00000-0  11957-3 0  9999
2 25400  98.7453 141.5484 0009148 318.6426  41.4060 14.25770391353609
Epoch (UTC): 18 July 2024 13:26:33
Eccentricity: 0.0009148
inclination: 98.7453°
perigee height: 799 km
apogee height: 812 km
right ascension of ascending node: 141.5484°
argument of perigee: 318.6426°
revolutions per day: 14.25770391
mean anomaly at epoch: 41.4060°
orbit number at epoch: 35360

The dashed part of the orbit path shows where the satellite is in the earth's shadow,  

DLR